This demonstration page uses our WeatherBlox Daily Observations layout. Learn more.

Left ArrowRight Arrow

39.29038, -76.61219

Hourly Observations for February 18, 2018

Temp ( °F °C ) Dew Point ( °F °C ) Humidity (%) Winds ( mph kmh ) Pressure ( in mb ) Visibility ( mi km ) Precip ( " mm )
12:54 am 00:54 undefined 34 1.1 33 0.6 97 97 undefined N/A 30.04 1017 N/A 0.00 0.00
1:54 am 01:54 undefined 34 1.1 33 0.6 97 97 undefined N/A 30.05 1018 N/A 0.00 0.00
2:54 am 02:54 undefined 35 1.7 33 0.6 93 93 undefined N/A 30.06 1018 N/A 0.00 0.00
3:54 am 03:54 undefined 34 1.1 33 0.6 97 97 undefined N/A 30.09 1019 N/A 0.00 0.00
4:54 am 04:54 undefined 34 1.1 33 0.6 97 97 undefined N/A 30.13 1020 N/A 0.00 0.00
5:54 am 05:54 undefined 33 0.6 32 0 96 96 undefined N/A 30.18 1022 N/A 0.00 0.00
6:54 am 06:54 undefined 33 0.6 32 0 96 96 undefined N/A 30.21 1023 N/A 0.00 0.00
7:54 am 07:54 undefined 33 0.6 33 0.6 100 100 undefined N/A 30.29 1026 N/A 0.00 0.00
8:54 am 08:54 undefined 33 0.6 33 0.6 100 100 undefined N/A 30.33 1027 N/A 0.00 0.00
9:54 am 09:54 undefined 36 2.2 34 1.1 93 93 undefined N/A 30.39 1029 N/A 0.00 0.00
10:54 am 10:54 undefined 41 5 36 2.2 82 82 undefined N/A 30.43 1030 N/A 0.00 0.00
11:54 am 11:54 undefined 45 7.2 35 1.7 68 68 undefined N/A 30.44 1031 N/A 0.00 0.00
12:54 pm 12:54 undefined 45 7.2 31 -0.6 58 58 undefined N/A 30.42 1030 N/A 0.00 0.00
1:54 pm 13:54 undefined 47 8.3 30 -1.1 52 52 undefined N/A 30.42 1030 N/A 0.00 0.00
2:54 pm 14:54 undefined 48 8.9 29 -1.7 48 48 undefined N/A 30.39 1029 N/A 0.00 0.00
3:54 pm 15:54 undefined 48 8.9 29 -1.7 48 48 undefined N/A 30.40 1029 N/A 0.00 0.00
4:54 pm 16:54 undefined 47 8.3 29 -1.7 50 50 undefined N/A 30.41 1030 N/A 0.00 0.00
5:54 pm 17:54 undefined 46 7.8 29 -1.7 51 51 undefined N/A 30.43 1031 N/A 0.00 0.00
6:54 pm 18:54 undefined 42 5.6 33 0.6 71 71 undefined N/A 30.43 1030 N/A 0.00 0.00
7:54 pm 19:54 undefined 41 5 33 0.6 73 73 undefined N/A 30.44 1031 N/A 0.00 0.00
8:54 pm 20:54 undefined 41 5 33 0.6 73 73 undefined N/A 30.45 1031 N/A 0.00 0.00
9:54 pm 21:54 undefined 39 3.9 33 0.6 79 79 undefined N/A 30.49 1032 N/A 0.00 0.00
10:54 pm 22:54 undefined 39 3.9 33 0.6 79 79 undefined N/A 30.49 1033 N/A 0.00 0.00
11:54 pm 23:54 undefined 38 3.3 33 0.6 83 83 undefined N/A 30.49 1033 N/A 0.00 0.00

Powered by Vaisala Xweather